Voltar ao catálogo

COSMOS 1275 DEB

AtivoPO
NORAD 39941·DEBRIS·🇷🇺 Russia

Lançado Jun 4, 1981 de Plesetsk Cosmodrome

Loading…

Próximas Passagens (próximas 24 horas)

TLE

EnvelhecendoSource: Space-Track

Época: Sep 9, 2026, 18:36 UTC

1 39941U 81053NB  26252.77505507  .00000925  00000-0  74891-3 0  9994
2 39941  83.0137  80.2443 0097072 289.5565  69.5136 13.87092724618992

Acompanhe COSMOS 1275 DEB em tempo real com AllMySat

Download on the App Store